Location: Gleizolles
(44.4833°N, 6.7667°E)
Time: 10:01:10
(UTC+00:00)

Altair - Pass Details

Date: 02 July 2024
Orbit: 1502 x 1682 km, 47.2° (Epoch: 20 July)

Event Time Altitude Azimuth Distance (km) Brightness Sun altitude
Rises 05:25:56 0° 294° (WNW) 4,692 9.6 14.0°
Reaches altitude 10° 05:29:11 10° 287° (WNW) 3,728 9.1 14.5°
Maximum altitude 05:37:37 38° 223° (SW) 2,239 8.1 16.0°
Drops below altitude 10° 05:46:20 10° 160° (SSE) 3,843 9.7 17.5°
Sets 05:49:46 0° 152° (SSE) 4,851 10.3 18.1°
